{"data":{"norad_id":55153,"epoch":"2026-05-24T23:10:53.266656Z","epoch_age_seconds":71883,"freshness":"FRESH","line1":"1 55153U 23004P   26144.96589429 -.00000010  00000+0 -57148-4 0  9998","line2":"2 55153  87.9157 340.0929 0001993 104.0540 256.0814 13.18687096166638","mean_motion":13.18687096,"eccentricity":0.0001993,"inclination_deg":87.9157,"raan_deg":340.0929,"arg_perigee_deg":104.054,"mean_anomaly_deg":256.0814,"bstar":-5.7148e-5,"rev_number":16663,"period_min":109.19952158234,"perigee_km":1188.2306559329,"apogee_km":1191.24721128,"semimajor_km":7567.8759336065,"source":"CELESTRAK","updated_at":"2026-05-25T13:38:22.642065Z"}}